Regional Weather Roundup
Issued by NWS Midland/Odessa, TX

Skip options and go directly to product.
Home | Oldest Version | Next Version | Current Version | All | Text Only | Save Text | Print | Product List | Glossary On

Skip product version selection by date and time.   
211
ASUS44 KMAF 241601
RWRMAF
MIDLAND AREA WEATHER ROUNDUP
NATIONAL WEATHER SERVICE MIDLAND TX
1000 AM CST SAT JAN 24 2015

...IN SOUTHWEST TEXAS AND SOUTHEAST NEW MEXICO...

CITY           SKY/WX    TMP DP  RH WIND       PRES   REMARKS
ALPINE         PTSUNNY   36  22  57 CALM      30.38S
ANDREWS        FAIR      37  26  64 NW9       30.28F WCI  30
ARTESIA        PTSUNNY   30  25  80 CALM      30.32F
BIG SPRING     PTSUNNY   36  29  77 W3        30.30R
CARLSBAD       MOSUNNY   38  25  59 N7        30.31F WCI  33
DRYDEN           N/A     47  27  45 W9        30.30R
FORT STOCKTON  MOSUNNY   39  26  59 W10       30.33S WCI  32
GUAD PASS      NOT AVBL
HOBBS          SUNNY     39  28  65 W9        30.29F WCI  33
MARFA          PTSUNNY   34  28  80 SW3       30.33R
MIDLAND AIRPK  MOSUNNY   42  29  59 NW9       30.29S WCI  36
MIDLAND INTL   MOSUNNY   42  30  62 NW12      30.28S WCI  36
ODESSA         MOSUNNY   42  27  55 N9        30.29S WCI  37
PECOS          MOSUNNY   39  28  63 W8        30.34F WCI  34
PRESIDIO       FAIR      38  32  78 CALM      30.37R
SEMINOLE       MOSUNNY   40  28  62 NW5       30.29F WCI  37
SNYDER         MOSUNNY  N/A N/A N/A W5        30.26R
WINK           MOSUNNY   38  27  64 CALM      30.31R
$$
...OTHER STATIONS IN TEXAS...

CITY           SKY/WX    TMP DP  RH WIND       PRES   REMARKS
ABILENE        MOSUNNY   40  30  67 W7        30.24S WCI  35
AMARILLO       SUNNY     34  24  67 W12       30.23R WCI  25
AUSTIN         PTSUNNY   46  36  68 W8        30.25S
BROWNSVILLE    MOSUNNY   50  41  71 W10       30.37S
CORPUS CHRISTI MOSUNNY   47  41  80 W10       30.33F
DALLAS FTW     MOSUNNY   44  30  57 N10       30.18S WCI  39
DEL RIO        MOSUNNY   46  37  71 NW8       30.31F
EL PASO        PTSUNNY   33  25  72 N7        30.34R WCI  27
HOUSTON INT    MOSUNNY   47  39  74 W6        30.25S
LUBBOCK        MOSUNNY   38  27  64 NW9       30.24R WCI  31
SAN ANGELO     MOSUNNY   40  30  67 W7        30.26S WCI  35
SAN ANTONIO    PTSUNNY   46  35  65 VRB7      30.27S
WACO           MOSUNNY   41  33  73 W7        30.22S WCI  36
WICHITA FALLS  NOT AVBL
$$
...OTHER LOCATIONS IN NEW MEXICO...

CITY           SKY/WX    TMP DP  RH WIND       PRES   REMARKS
ALAMAGORDO     MOSUNNY   28  25  86 CALM      30.35R
ALBUQUERQUE    MOSUNNY   31  18  58 NE8       30.36F WCI  23
CANNON AFB     SUNNY     30  21  68 W10       30.25S WCI  21
CLOVIS         SUNNY     30  21  69 W7        30.24F WCI  23
HOLLOMAN AFB   MOSUNNY   24  21  87 CALM      30.34R
ROSWELL        SUNNY     26  21  81 SW3       30.30F
RUIDOSO        SUNNY     30  16  55 CALM      30.31S
SANTA FE       SUNNY     23  15  71 N13G20    30.30F WCI  11
TRUTH OR CONSE SUNNY     36  22  56 CALM      30.33S
TUCUMCARI      SUNNY     29  19  66 SW7       30.21F WCI  22
$$

USA.gov is the U.S. government's official web portal to all federal, state and local government web resources and services.